GW0458 Weather Reports


Display with metric or nautical units.
time (UTC)temp
F
wind
direction
speed
MPH
gust
MPH
rain 1hr
in
rain 24hr
in
rain mn
in
humidity
%
barometer
mb
20260904131417 51 201 0.0 0.0 0.00 0.00 0.00 99 1020.1
20260904124416 51 197 0.0 1.0 0.00 0.00 0.00 99 1019.9
20260904121416 51 200 0.0 0.0 0.00 0.00 0.00 99 1019.5
20260904114416 51 199 0.0 0.0 0.00 0.00 0.00 99 1019.5
20260904111414 51 178 0.0 0.0 0.00 0.00 0.00 99 1019.3
20260904104413 52 204 0.0 0.0 0.00 0.00 0.00 99 1019.0
20260904101411 52 201 0.0 0.0 0.00 0.00 0.00 99 1018.8
20260904094411 53 204 0.0 0.0 0.00 0.00 0.00 99 1018.8
20260904091408 53 198 0.0 1.0 0.00 0.00 0.00 99 1018.8
20260904084403 53 200 0.0 0.0 0.00 0.00 0.00 99 1019.0
20260904081358 53 202 0.0 0.0 0.00 0.00 0.00 99 1018.5
20260904074357 54 200 0.0 0.0 0.00 0.00 0.00 99 1018.8
20260904071353 54 206 0.0 0.0 0.00 0.00 0.00 99 1019.1
20260904064351 54 200 1.0 1.0 0.00 0.00 0.00 99 1018.9
20260904061349 55 203 0.0 1.0 0.00 0.00 0.00 97 1018.8
20260904054345 55 205 0.0 0.0 0.00 0.00 0.00 96 1018.4
20260904051342 55 205 0.0 0.0 0.00 0.00 0.00 96 1018.5
20260904044342 54 206 0.0 0.0 0.00 0.00 0.00 99 1018.8
20260904041339 55 204 0.0 0.0 0.00 0.00 0.00 99 1018.7
20260904034334 55 197 0.0 0.0 0.00 0.00 0.00 97 1018.4
20260904031329 57 201 1.0 1.0 0.00 0.00 0.00 94 1018.2
20260904024324 57 193 0.0 1.0 0.00 0.00 0.00 96 1018.1
20260904021321 56 171 2.0 2.0 0.00 0.00 0.00 97 1018.1
20260904014316 58 199 0.0 1.0 0.00 0.00 0.00 95 1017.8
20260904011311 61 204 0.0 1.0 0.00 0.00 0.00 87 1017.5
20260904004307 64 191 0.0 0.0 0.00 0.00 0.00 71 1017.5
20260904001307 64 70 2.0 2.0 0.00 0.00 0.00 68 1017.4
20260903234306 65 342 1.0 2.0 0.00 0.00 0.00 69 1017.2
20260903231304 66 189 0.0 1.0 0.00 0.00 0.00 70 1017.1
20260903224301 64 193 0.0 1.0 0.00 0.00 0.00 72 1017.5
20260903221301 63 209 0.0 1.0 0.00 0.00 0.00 76 1017.8
20260903214301 63 206 0.0 0.0 0.00 0.00 0.00 80 1018.0
20260903211257 63 207 0.0 0.0 0.00 0.00 0.00 77 1017.5
20260903204256 68 228 1.0 1.0 0.00 0.00 0.00 72 1017.4
20260903201254 66 209 0.0 1.0 0.00 0.00 0.00 73 1017.2
20260903194252 63 216 0.0 0.0 0.00 0.00 0.00 79 1017.5
20260903191250 64 167 1.0 1.0 0.00 0.00 0.00 86 1017.4
20260903184249 62 203 1.0 1.0 0.00 0.00 0.00 81 1017.4
20260903181244 60 197 1.0 1.0 0.00 0.00 0.00 85 1017.4
20260903174238 59 197 0.0 1.0 0.00 0.00 0.00 87 1017.3
20260903171233 60 183 2.0 3.0 0.00 0.00 0.00 85 1017.0
20260903164229 56 177 3.0 3.0 0.00 0.00 0.00 91 1017.0
20260903161225 56 197 3.0 5.0 0.00 0.00 0.00 93 1017.0
20260903154222 54 94 2.0 2.0 0.00 0.00 0.00 95 1016.8
20260903151217 53 213 2.0 2.0 0.00 0.00 0.00 98 1017.0
20260903144215 53 174 1.0 2.0 0.00 0.00 0.00 99 1017.0
20260903141213 52 189 2.0 2.0 0.00 0.00 0.00 99 1016.9
20260903134212 52 200 1.0 2.0 0.00 0.00 0.00 99 1016.9